Flag for USA

Past Weather in Woodbridge at Rocky Creek, Florida, USA — Yesterday and Last 2 Weeks

Now
43 °F

Overcast.


Feels Like: 39 °F
Forecast: 60 / 38 °F
Wind: 7 mph from Northeast

Location: Tampa, Peter O Knight Airport

Current Time: Jan 21, 2019 at 4:40:41 am

Latest Report: Jan 21, 2019 at 3:55 am


Visibility: 10 mi

Pressure: 30.24 "Hg

Humidity: 81%

Dew Point: 37 °F

Location of Woodbridge at Rocky CreekLocation

Past Weather in Woodbridge at Rocky Creek — Graph

°F

Woodbridge at Rocky Creek Temperature Yesterday

Maximum temperature yesterday: 68 °F (at 12:15 am)
Minimum temperature yesterday: 50 °F (at 10:15 pm)
Average temperature yesterday: 57 °F

High & Low Weather Summary for the Past Weeks

 TemperatureHumidityPressure
High79 °F (Jan 7, 2:15 pm)100% (Jan 6, 3:15 am)30.32 "Hg (Jan 6, 3:15 am)
Low43 °F (Jan 21, 3:15 am)27% (Jan 18, 11:35 am)29.82 "Hg (Jan 20, 4:55 am)
Average61 °F71%30.16 "Hg
* Reported Jan 6 3:15 am — Jan 21 3:15 am, Woodbridge at Rocky Creek. Weather by CustomWeather, © 2019

Note: Actual official high and low records may vary slightly from our data, if they occured in-between our weather recording intervals... More about our weather records

Advertising

Woodbridge at Rocky Creek Weather History for the Previous 24 Hours

Scroll right to see more
 ConditionsComfort  
Time TempWeatherWind HumidityBarometerVisibility
3:15 am
Mon, Jan 21
43 °FOvercast.5 mph81%30.23 "Hg10 mi
2:35 am45 °FPassing clouds.5 mph76%30.22 "Hg10 mi
1:55 am45 °FOvercast.7 mph81%30.24 "Hg10 mi
1:35 am46 °FOvercast.9 mph82%30.23 "Hg10 mi
1:15 am46 °FOvercast.8 mph82%30.22 "Hg10 mi
12:55 am46 °FOvercast.9 mph87%30.21 "Hg10 mi
12:35 am48 °FMostly cloudy.8 mph82%30.20 "Hg10 mi
12:15 am50 °FMostly cloudy.6 mph76%30.20 "Hg10 mi
11:55 pm
Sun, Jan 20
50 °FMostly cloudy.3 mph76%30.20 "Hg10 mi
11:35 pm50 °FOvercast.3 mph76%30.21 "Hg10 mi
11:15 pm50 °FOvercast.6 mph76%30.20 "Hg10 mi
10:55 pm50 °FMostly cloudy.3 mph76%30.20 "Hg10 mi
10:35 pm50 °FMostly cloudy.6 mph76%30.19 "Hg10 mi
10:15 pm50 °FOvercast.6 mph76%30.18 "Hg10 mi
9:55 pm52 °FOvercast.6 mph72%30.17 "Hg10 mi
9:35 pm52 °FMostly cloudy.8 mph72%30.16 "Hg10 mi
9:15 pm52 °FMostly cloudy.7 mph72%30.15 "Hg10 mi
8:15 pm52 °FOvercast.12 mph77%30.15 "Hg10 mi
7:55 pm52 °FOvercast.8 mph77%30.12 "Hg10 mi
7:15 pm52 °FOvercast.10 mph77%30.09 "Hg10 mi
6:55 pm52 °FOvercast.9 mph77%30.10 "Hg10 mi
6:35 pm52 °FOvercast.9 mph77%30.09 "Hg10 mi
6:15 pm52 °FOvercast.13 mph77%30.07 "Hg10 mi
5:55 pm52 °FOvercast.9 mph77%30.07 "Hg10 mi
5:35 pm52 °FOvercast.12 mph77%30.06 "Hg10 mi
5:15 pm52 °FOvercast.14 mph77%30.05 "Hg10 mi
4:55 pm54 °FOvercast.9 mph77%30.04 "Hg10 mi
4:35 pm54 °FOvercast.13 mph77%30.04 "Hg10 mi
4:15 pm54 °FOvercast.13 mph77%30.03 "Hg10 mi
3:55 pm54 °FOvercast.9 mph77%30.03 "Hg10 mi
3:35 pm54 °FOvercast.13 mph77%30.02 "Hg10 mi
3:15 pm55 °FOvercast.15 mph72%30.01 "Hg10 mi
2:55 pm55 °FOvercast.15 mph72%30.01 "Hg10 mi
2:35 pm55 °FOvercast.14 mph72%30.00 "Hg10 mi
2:15 pm57 °FMostly cloudy.15 mph67%30.00 "Hg10 mi
1:35 pm59 °FOvercast.15 mph72%30.00 "Hg10 mi
1:15 pm59 °FMostly cloudy.16 mph72%30.00 "Hg10 mi
12:55 pm61 °FMostly cloudy.16 mph68%30.00 "Hg10 mi
12:35 pm61 °FMostly cloudy.14 mph68%29.99 "Hg10 mi
12:15 pm61 °FMore clouds than sun.17 mph72%29.99 "Hg10 mi
11:55 am61 °FMostly cloudy.14 mph72%29.99 "Hg10 mi
11:35 am63 °FMostly cloudy.15 mph64%29.99 "Hg10 mi
11:15 am63 °FMore clouds than sun.14 mph68%29.98 "Hg10 mi
10:55 am63 °FCloudy.12 mph68%29.98 "Hg10 mi
10:35 am61 °FCloudy.14 mph77%29.96 "Hg10 mi
10:15 am63 °FCloudy.15 mph73%29.95 "Hg10 mi
9:55 am63 °FMore clouds than sun.15 mph73%29.94 "Hg10 mi
9:35 am63 °FMore clouds than sun.9 mph73%29.93 "Hg10 mi
9:15 am63 °FMore clouds than sun.13 mph73%29.92 "Hg10 mi
8:35 am63 °FMore clouds than sun.10 mph77%29.91 "Hg10 mi
8:15 am61 °FLight rain. Cloudy.12 mph88%29.90 "Hg5 mi
7:55 am63 °FMore clouds than sun.13 mph77%29.89 "Hg7 mi
7:35 am63 °FOvercast.12 mph73%29.88 "Hg10 mi
7:15 am63 °FOvercast.13 mph73%29.88 "Hg10 mi
6:55 am63 °FMostly cloudy.10 mph77%29.87 "Hg10 mi
6:35 am63 °FMostly cloudy.12 mph83%29.86 "Hg10 mi
6:15 am64 °FOvercast.8 mph83%29.83 "Hg10 mi
5:55 am64 °FOvercast.10 mph88%29.83 "Hg10 mi
5:35 am64 °FOvercast.8 mph88%29.82 "Hg7 mi
5:15 am64 °FMostly cloudy.9 mph94%29.83 "Hg7 mi
4:55 am64 °FMostly cloudy.9 mph100%29.82 "Hg7 mi
Weather by CustomWeather, © 2019

See weather overview